Погода в Хал-Килое

Россия / Чеченская Республика     42°49′30″N   45°47′19″E
темп.,
°C
ветер,
м/с
пор.,
м/с
влажн.,
%
обл.,
%
осадки,
мм/ч
давл.,
гПа
погр.,
м
14 апреля, ср
ср1400:00+4ююв229072 1.7 101748
03:00+4ююв118820 2.2 101513
06:00+3ссз119557 0.3 101654
09:00+4с2296100 0.4 1017362
12:00+3ссз2398100 1.3 1017324
15:00+3зсз0196100 3.7 1018218
18:00+3юз118987 0.5 1018118
21:00+1ююз21917 0.5 102019
15 апреля, чт
чт1500:000ю32803 0.0 101935
03:000ююз22720 0.0 102024
06:000ююз22642 0.0 102031
09:00+9ссз11350 0.0 1016879
12:00+11ссз24374 0.0 10151821
15:00+10с2251100 0.1 10151463
18:00+7ссз2280100 0.8 1017339
21:00+6сз0181100 0.9 1018141
16 апреля, пт
пт1600:00+4ю1183100 0.0 101816
03:00+3ю227273 0.0 101922
06:00+3ю22705 0.0 102035
09:00+9с225186 0.0 1018986
12:00+11с225198 0.1 10161478
15:00+11с225956 1.4 10161168
18:00+9с117247 0.7 101639
21:00+5ю337923 1.3 101858
17 апреля, сб
сб1700:00+5ю338263 0.0 102054
03:00+4ю337895 0.0 102050
06:00+4ю237595 0.0 102046
09:00+9с326292 0.0 1019775
12:00+6с3391100 0.1 1021538
15:00+5с2295100 0.3 1022404
18:00+5с2299100 0.3 1022191
21:00+5св1199100 1.2 1022130
18 апреля, вс
вс1800:00+5св1199100 0.0 102094
03:00+5с2299100 0.8 1020153
06:00+5юв1293100 7.5 1021135
09:00+10всв127485 7.6 1019662
12:00+10ссз127594 0.1 1018644
15:00+12вюв0267100 0.2 1018854
18:00+9ссз1186100 0.0 1019106
21:00+7ю228117 0.0 102133